[[{"header":{"parameterUnit":"m.s-1","parameterCategory":1,"la1":30.2991,"la2":30.254,"lo1":-89.0895,"lo2":-89.0444,"dy":0.0017,"dx":0.0017,"nx":28,"ny":28,"refTime":"2024-05-25T21:00:00:Z","depth":0,"parameterNumber":2,"parameterNumberName":"U-component_of_WINDS"},"data":[0,0,0,0,0,0,0,0,0,0,0,0,0,0,0,0,0,0,0,0,0,0,0,0,0,0,0,0,0,0,0,0,0,0,0,0,0,0,0,0,0,0,0,0,0,0,0,0,0,0,0,0,0,0,0,0,0,0,-0.8968,-0.8967,0,-0.8803,-0.8801,-0.8799,-0.8713,-0.8712,-0.8712,-0.8712,-0.8541,-0.8536,-0.8532,0,0,0,0,0,0,0,0,0,0,0,0,0,-0.9208,-0.9204,-0.8968,-0.8966,-0.8964,-0.8803,-0.8801,-0.8799,-0.8713,-0.8712,-0.8712,-0.8712,-0.8542,-0.8537,-0.8532,0,0,0,0,0,0,0,0,0,0,0,0,0,-0.9079,-0.9203,-0.8969,-0.8902,-0.8894,-0.8804,-0.8801,-0.8798,-0.8713,-0.8712,-0.8712,-0.8712,-0.8544,-0.8537,-0.8531,-0.8494,0,0,-0.851,-0.8508,0,0,0,0,0,0,0,0,-0.9087,-0.9071,-0.8914,-0.8906,-0.8898,-0.8778,-0.8823,-0.8696,-0.8713,-0.8781,-0.8712,-0.8712,-0.862,-0.8607,-0.8576,-0.8486,-0.8478,-0.851,-0.8506,-0.8503,-0.8501,0,0,0,0,0,0,0,-0.9096,-0.9077,-0.8903,-0.8912,-0.8902,-0.888,-0.8861,-0.8798,-0.8704,-0.8775,-0.8769,-0.8751,-0.8615,-0.8583,-0.8572,-0.8476,-0.851,-0.8504,-0.85,-0.8497,-0.8346,-0.8346,0,0,0,0,0,0,-0.9116,-0.9085,-0.8908,-0.8898,-0.8994,-0.8876,-0.8855,-0.8817,-0.8704,-0.8687,-0.8751,-0.8747,-0.8594,-0.8579,-0.8565,-0.8514,-0.8503,-0.8497,-0.8493,-0.8346,-0.8346,-0.8346,0,0,0,0,0,0,-0.9121,-0.9101,-0.8915,-0.899,-0.8964,-0.8872,-0.883,-0.8814,-0.8781,-0.8686,-0.8668,-0.8735,-0.8594,-0.8575,-0.8512,-0.8507,-0.8494,-0.8488,-0.8346,-0.8346,-0.8346,-0.8411,0,0,0,0,0,0,-0.9128,-0.9103,-0.9088,-0.899,-0.8961,-0.8865,-0.8829,-0.881,-0.877,-0.8764,-0.8666,-0.865,-0.8592,-0.8523,-0.8506,-0.8497,-0.8482,-0.8346,-0.8346,-0.8346,-0.8409,-0.8414,-0.8417,0,0,0,0,0,-0.9137,-0.9113,-0.9088,-0.9067,-0.894,-0.8865,-0.8848,-0.8783,-0.877,-0.8754,-0.8693,-0.8653,-0.8511,-0.8517,-0.8497,-0.8487,-0.8346,-0.8346,-0.8346,-0.8407,-0.8413,-0.8417,0,0,0,0,0,0,-0.9212,-0.9099,-0.907,-0.9013,-0.895,-0.8851,-0.8828,-0.879,-0.8728,-0.8725,-0.8646,-0.8624,-0.8569,-0.8522,-0.8531,-0.8445,-0.8424,-0.842,-0.8478,-0.8482,-0.8486,-0.8498,-0.8477,0,0,0,0,0,-0.9222,-0.9171,-0.9075,-0.9034,-0.9003,-0.8922,-0.8887,-0.8842,-0.8772,-0.8745,-0.8679,-0.8613,-0.8553,-0.8515,-0.8454,-0.8403,-0.838,-0.8386,-0.839,-0.8393,-0.839,-0.8359,-0.836,-0.8346,-0.8346,-0.8346,0,0,-0.9242,-0.9174,-0.9146,-0.9047,-0.8992,-0.8941,-0.89,-0.8847,-0.8807,-0.8736,-0.8673,-0.8623,-0.8544,-0.8487,-0.8458,-0.8445,-0.839,-0.8393,-0.8397,-0.8392,-0.8359,-0.8361,-0.8362,-0.8346,-0.8346,-0.8346,0,0,-0.9251,-0.9195,-0.9155,-0.9101,-0.9019,-0.8965,-0.8956,-0.8863,-0.8827,-0.8763,-0.8709,-0.8661,-0.856,-0.8505,-0.8465,-0.8455,-0.8416,-0.8438,-0.8458,-0.8429,-0.843,-0.843,-0.8426,-0.8426,-0.8436,-0.8436,-0.8436,0,-0.9286,-0.9206,-0.9139,-0.9089,-0.9046,-0.8981,-0.8939,-0.8891,-0.8794,-0.8766,-0.8753,-0.8625,-0.8567,-0.8496,-0.8494,-0.8464,-0.845,-0.8448,-0.8435,-0.8435,-0.8435,-0.843,-0.8428,-0.8439,-0.8438,-0.8438,-0.8438,0,-0.9253,-0.9198,-0.9176,-0.9084,-0.9039,-0.8994,-0.8919,-0.8882,-0.8842,-0.8789,-0.8725,-0.8654,-0.8578,-0.8558,-0.8517,-0.8481,-0.8476,-0.8451,-0.8428,-0.844,-0.8434,-0.8432,-0.8443,-0.8442,-0.8441,-0.844,0,0,-0.9303,-0.9175,-0.9168,-0.9126,-0.9031,-0.8988,-0.894,-0.8866,-0.8836,-0.8771,-0.8728,-0.8645,-0.8621,-0.8575,-0.8528,-0.8503,-0.8499,-0.848,-0.8477,-0.8485,-0.8454,-0.8473,-0.8472,-0.8474,-0.8473,-0.8472,-0.8461,0,-0.9298,-0.9209,-0.9147,-0.9081,-0.903,-0.8968,-0.8926,-0.8863,-0.8814,-0.8762,-0.8707,-0.8649,-0.8622,-0.8594,-0.8566,-0.8506,-0.8492,-0.8506,-0.8432,-0.843,-0.8452,-0.8469,-0.8488,-0.8481,-0.8458,-0.8457,-0.8457,0,-0.928,-0.9218,-0.9148,-0.9059,-0.9035,-0.8999,-0.8927,-0.8879,-0.8807,-0.8772,-0.8722,-0.8674,-0.8621,-0.8605,-0.8529,-0.854,-0.8506,-0.8472,-0.8471,-0.846,-0.8443,-0.8458,-0.8476,-0.8475,-0.8453,-0.8453,-0.8454,0,-0.9323,-0.9222,-0.9167,-0.9133,-0.9028,-0.9004,-0.8959,-0.8887,-0.8847,-0.8784,-0.8757,-0.8689,-0.8651,-0.86,-0.8535,-0.8529,-0.8466,-0.8444,-0.8435,-0.8436,-0.8422,-0.8424,-0.8435,-0.8404,-0.8404,-0.8404,-0.8404,0,-0.9323,-0.9282,-0.9184,-0.915,-0.9103,-0.9032,-0.8987,-0.8937,-0.8874,-0.8829,-0.8771,-0.873,-0.8648,-0.8597,-0.8546,-0.8491,-0.8474,-0.8444,-0.8431,-0.8449,-0.8452,-0.8424,-0.8423,-0.8403,-0.8403,-0.8403,-0.8403,0,-0.9362,-0.9295,-0.923,-0.9137,-0.9113,-0.9082,-0.9002,-0.8966,-0.8914,-0.8858,-0.8841,-0.8758,-0.8695,-0.8626,-0.854,-0.8505,-0.8453,-0.8435,-0.8477,-0.8469,-0.8463,-0.8465,-0.8456,-0.8451,-0.8424,-0.8425,-0.8425,0,-0.9366,-0.9333,-0.9237,-0.9203,-0.916,-0.9106,-0.9065,-0.8994,-0.8954,-0.887,-0.8845,-0.8778,-0.872,-0.8622,-0.8554,-0.8488,-0.8467,-0.8468,-0.8456,-0.8475,-0.8465,-0.8468,-0.8464,-0.8471,-0.8472,-0.8473,-0.8473,0,-0.938,-0.9348,-0.9292,-0.9224,-0.9177,-0.912,-0.9061,-0.9036,-0.8954,-0.8912,-0.8847,-0.8802,-0.8715,-0.8648,-0.8574,-0.8527,-0.8486,-0.8478,-0.8472,-0.8488,-0.8514,-0.8499,-0.8486,-0.8478,-0.8477,-0.8477,-0.8477,-0.8476,-0.94,-0.9368,-0.9295,-0.9234,-0.9182,-0.9129,-0.9091,-0.9034,-0.8979,-0.8902,-0.8864,-0.88,-0.8729,-0.8625,-0.858,-0.8528,-0.8515,-0.8507,-0.8504,-0.8503,-0.8507,-0.8524,-0.8514,-0.8514,-0.8514,-0.8514,-0.8513,0,-0.941,-0.936,-0.9305,-0.9224,-0.9176,-0.9143,-0.9076,-0.9038,-0.8982,-0.892,-0.8865,-0.879,-0.8726,-0.8654,-0.8585,-0.8558,-0.8537,-0.8542,-0.8542,-0.8532,-0.8523,-0.8535,-0.856,-0.856,-0.856,-0.856,-0.856,-0.856,-0.9409,-0.9353,-0.9314,-0.9231,-0.9182,-0.9118,-0.9083,-0.9033,-0.8982,-0.8902,-0.8849,-0.8803,-0.8736,-0.8662,-0.8602,-0.8582,-0.8559,-0.8569,-0.8544,-0.8537,-0.8533,-0.8529,-0.854,-0.8565,-0.8565,-0.8557,-0.8557,-0.8557]},{"header":{"parameterUnit":"m.s-1","parameterCategory":1,"la1":30.2991,"la2":30.254,"lo1":-89.0895,"lo2":-89.0444,"dy":0.0017,"dx":0.0017,"nx":28,"ny":28,"refTime":"2024-05-25T21:00:00:Z","depth":0,"parameterNumber":3,"parameterNumberName":"V-component_of_WINDS"},"data":[0,0,0,0,0,0,0,0,0,0,0,0,0,0,0,0,0,0,0,0,0,0,0,0,0,0,0,0,0,0,0,0,0,0,0,0,0,0,0,0,0,0,0,0,0,0,0,0,0,0,0,0,0,0,0,0,0,0,5.227,5.227,0,5.2254,5.2254,5.2254,5.2225,5.2224,5.2224,5.2223,5.2205,5.2205,5.2205,0,0,0,0,0,0,0,0,0,0,0,0,0,5.2276,5.2276,5.227,5.227,5.227,5.2254,5.2254,5.2254,5.2225,5.2224,5.2223,5.2223,5.2205,5.2205,5.2205,0,0,0,0,0,0,0,0,0,0,0,0,0,5.2268,5.2276,5.227,5.2254,5.2252,5.2254,5.2254,5.2253,5.2225,5.2224,5.2223,5.2223,5.2205,5.2205,5.2205,5.2222,0,0,5.2205,5.2205,0,0,0,0,0,0,0,0,5.2268,5.2267,5.2256,5.2255,5.2253,5.2241,5.2249,5.2243,5.2225,5.2235,5.2223,5.2222,5.2217,5.2216,5.2215,5.2221,5.222,5.2205,5.2205,5.2205,5.2205,0,0,0,0,0,0,0,5.2269,5.2268,5.2264,5.2256,5.2254,5.2247,5.2245,5.2248,5.2231,5.2234,5.2232,5.2231,5.2216,5.2215,5.2214,5.222,5.2205,5.2205,5.2205,5.2205,5.2239,5.224,0,0,0,0,0,0,5.2272,5.2269,5.2264,5.2263,5.2259,5.2247,5.2245,5.2245,5.2231,5.2228,5.2231,5.2229,5.2215,5.2214,5.2214,5.2233,5.2205,5.2205,5.2205,5.2238,5.2239,5.224,0,0,0,0,0,0,5.2272,5.2272,5.2265,5.2265,5.2264,5.2248,5.2249,5.2245,5.2244,5.2229,5.2225,5.2233,5.2215,5.2214,5.222,5.2232,5.2205,5.2205,5.2237,5.2239,5.224,5.2271,0,0,0,0,0,0,5.2272,5.2272,5.2278,5.2266,5.2264,5.2272,5.2249,5.2246,5.2244,5.2242,5.223,5.2227,5.2214,5.222,5.222,5.2231,5.2205,5.2236,5.2238,5.2239,5.2269,5.2273,5.2277,0,0,0,0,0,5.2273,5.2287,5.2279,5.2278,5.2272,5.2273,5.2272,5.2257,5.2246,5.2252,5.2242,5.2227,5.2231,5.2221,5.2221,5.2232,5.2235,5.2237,5.2239,5.2267,5.2272,5.2277,0,0,0,0,0,0,5.23,5.2285,5.2276,5.2286,5.2281,5.2268,5.2275,5.2263,5.226,5.2258,5.2239,5.2237,5.2246,5.224,5.2229,5.2248,5.2231,5.2233,5.2252,5.2257,5.2261,5.2262,5.2205,0,0,0,0,0,5.2308,5.231,5.2297,5.2307,5.2305,5.2291,5.2291,5.228,5.2274,5.2271,5.2262,5.2256,5.2256,5.2256,5.2255,5.2268,5.2265,5.2275,5.2279,5.2283,5.2285,5.2292,5.2297,5.2247,5.2247,5.2247,0,0,5.2323,5.2315,5.2317,5.2313,5.2307,5.231,5.2289,5.2293,5.2295,5.2271,5.2277,5.2271,5.2263,5.2273,5.2277,5.2268,5.2298,5.2285,5.2288,5.2288,5.2295,5.2299,5.2303,5.2248,5.2248,5.2248,0,0,5.2352,5.2346,5.2355,5.235,5.2343,5.2334,5.2336,5.2325,5.2319,5.2325,5.2308,5.231,5.231,5.2305,5.2303,5.2332,5.2319,5.2332,5.2353,5.2361,5.2365,5.2368,5.2379,5.2383,5.2334,5.2334,5.2335,0,5.2372,5.2376,5.2361,5.2366,5.2365,5.2345,5.2354,5.235,5.2342,5.2342,5.2332,5.2332,5.2326,5.2335,5.2342,5.2341,5.2343,5.2333,5.2365,5.2369,5.2372,5.2382,5.2386,5.2336,5.2336,5.2336,5.2336,0,5.2401,5.2404,5.2412,5.2406,5.2406,5.2413,5.2399,5.24,5.239,5.2382,5.2388,5.238,5.2377,5.2378,5.2368,5.2387,5.2381,5.2369,5.2351,5.2378,5.2388,5.2391,5.2339,5.2338,5.2338,5.2337,0,0,5.2446,5.2433,5.2436,5.2434,5.2425,5.2427,5.2433,5.2431,5.2433,5.2429,5.2434,5.2435,5.2424,5.2421,5.241,5.2417,5.2441,5.2403,5.2403,5.2411,5.2462,5.2472,5.2477,5.2433,5.2433,5.2434,5.2463,0,5.2473,5.2484,5.2471,5.2485,5.2488,5.2469,5.2475,5.247,5.2463,5.2464,5.2456,5.2457,5.2442,5.244,5.2446,5.2437,5.2451,5.2435,5.2437,5.2437,5.244,5.2481,5.2491,5.2519,5.2466,5.2467,5.2467,0,5.2506,5.2505,5.2519,5.251,5.2511,5.2516,5.2514,5.2516,5.251,5.2504,5.2502,5.249,5.2496,5.2479,5.2487,5.2476,5.2476,5.2472,5.2473,5.2472,5.2454,5.2482,5.2528,5.2532,5.2473,5.2472,5.2472,0,5.2539,5.254,5.2549,5.2547,5.2537,5.2542,5.2538,5.2531,5.2531,5.2529,5.2529,5.2528,5.2527,5.2526,5.2514,5.2502,5.2523,5.2505,5.2519,5.2519,5.2524,5.2524,5.257,5.2524,5.2524,5.2524,5.2524,0,5.2571,5.258,5.2563,5.2569,5.2579,5.2564,5.2575,5.2569,5.2564,5.2568,5.2551,5.2556,5.2539,5.2541,5.2531,5.254,5.2539,5.2535,5.2532,5.2536,5.2537,5.2536,5.2534,5.2525,5.2525,5.2524,5.2524,0,5.2608,5.2598,5.2606,5.2596,5.2594,5.2602,5.2594,5.2598,5.259,5.2596,5.2596,5.2583,5.2585,5.2573,5.2572,5.2566,5.2579,5.2573,5.2581,5.2579,5.2594,5.2593,5.2642,5.2647,5.2597,5.2598,5.2598,0,5.263,5.2637,5.2628,5.263,5.2627,5.263,5.263,5.2617,5.2618,5.2612,5.2618,5.2619,5.2619,5.2623,5.2613,5.2613,5.2607,5.2624,5.2607,5.2611,5.2608,5.2608,5.2609,5.2628,5.2628,5.2629,5.2629,0,5.2669,5.2663,5.2665,5.2665,5.2666,5.2665,5.2663,5.2665,5.265,5.2652,5.2655,5.2655,5.2655,5.2656,5.2654,5.265,5.2637,5.2635,5.2638,5.2643,5.2647,5.2646,5.2591,5.2634,5.2633,5.2633,5.2633,5.2633,5.2699,5.2705,5.27,5.2702,5.27,5.2698,5.2703,5.2696,5.2698,5.2697,5.2689,5.2693,5.2688,5.2684,5.2681,5.2684,5.2676,5.2681,5.2682,5.2683,5.2686,5.2647,5.2684,5.2684,5.2684,5.2683,5.2683,0,5.2738,5.2734,5.2737,5.2735,5.2737,5.2726,5.2723,5.2725,5.2729,5.2726,5.2727,5.273,5.2731,5.2723,5.2723,5.2727,5.2722,5.2728,5.2727,5.2727,5.2693,5.2691,5.2732,5.2732,5.2732,5.2732,5.2732,5.2732,5.2758,5.2768,5.2762,5.277,5.2766,5.2771,5.277,5.2769,5.2767,5.2771,5.2773,5.2767,5.2762,5.2762,5.2763,5.276,5.2761,5.277,5.2765,5.2734,5.2729,5.2724,5.2722,5.277,5.277,5.2799,5.2799,5.2799]}]]